+ View the NASA Portal
+ Center for Near-Earth Object Studies
JPL Small-Body Database Browser
Search:
[
help
]
3161 Beadell (1980 TB5)
Classification:
Main-belt Asteroid
SPK-ID:
2003161
[
Ephemeris
|
Orbit Diagram
|
Orbital Elements
|
Mission Design
|
Physical Parameters
|
Discovery Circumstances
]
[ show orbit diagram ]
Orbital Elements at Epoch 2459000.5 (2020-May-31.0) TDB
Reference:
JPL 39
(heliocentric ecliptic J2000)
Element
Value
Uncertainty (1-sigma)
Units
e
.1699879377452337
4.52e-08
a
2.57183724377069
1.2909e-08
au
q
2.134655934485725
1.177e-07
au
i
14.93599631696802
6.511e-06
deg
node
351.5380611026447
1.461e-05
deg
peri
255.7728521599694
2.4106e-05
deg
M
329.5956956650703
1.8666e-05
deg
t
p
2459127.731960414278
(2020-Oct-05.23196041)
7.8044e-05
TDB
period
1506.480965476949
4.12
1.1342e-05
3.105e-08
d
yr
n
.2389675065599151
1.7992e-09
deg/d
Q
3.009018553055655
1.5103e-08
au
Orbit Determination Parameters
# obs. used (total)
2217
data-arc span
25173 days (68.92 yr)
first obs. used
1951-08-11
last obs. used
2020-07-12
planetary ephem.
DE431
SB-pert. ephem.
SB431-N16
condition code
0
norm. resid. RMS
.4068
source
ORB
producer
Otto Matic
solution date
2020-Nov-13 04:02:42
Additional Information
Earth MOID
= 1.17977 au
Jupiter MOID
= 2.18727 au
T_jup
= 3.362
[ show covariance matrix ]
[
Ephemeris
|
Orbit Diagram
|
Orbital Elements
|
Mission Design
|
Physical Parameters
|
Discovery Circumstances
]
Physical Parameter Table
Parameter
Symbol
Value
Units
Sigma
Reference
Notes
absolute magnitude
H
12.5
n/a
MPO384780
diameter
diameter
13.687
km
0.073
urn:nasa:pds:neowise_diameters_albedos::2.0[mainbelt] (http://adsabs.harvard.edu/abs/2011ApJ...741...68M)
rotation period
rot_per
36.253
h
n/a
LCDB (Rev. 2020-October); Warner et al., 2009
Published Reference List:
[Oey, J.; Han, X.L.; Gipson, K. (2013) Minor Planet Bull. 40, 64.]
geometric albedo
albedo
0.093
0.007
urn:nasa:pds:neowise_diameters_albedos::2.0[mainbelt] (http://adsabs.harvard.edu/abs/2011ApJ...741...68M)
3161 Beadell (1980 TB5)
Discovered 1980-Oct-09 by Shoemaker, C. at Palomar
Reference:
DISCOVERY.DB
Last Updated:
2003-08-29
[
Ephemeris
|
Orbit Diagram
|
Orbital Elements
|
Mission Design
|
Physical Parameters
|
Discovery Circumstances
]
2021-Jan-26 15:31 UT
(server date/time)
Site Manager:
Ryan S. Park
Webmaster
:
Alan B. Chamberlin